Flag for Paraguay Weather past 2 weeks in Ciudad del Este, Paraguay

66 °F

Thunderstorms. Partly sunny.

Feels Like: 66 °F
Forecast: 69 / 82 °F
Wind: 2 mph from East

Location: Foz Do Iguacu Aeroporto

Current Time: Oct 9, 2015 at 9:50:16 AM

Latest Report: Oct 9, 2015 at 9:00 AM

Visibility: 5 mi

Pressure: 29.83 "Hg

Humidity: 94%

Dew point: 64 °F

Location of Ciudad del EsteLocation

Historic Weather in Ciudad del Este — Graph


Ciudad del Este temperature yesterday

Maximum temperature yesterday: 95 °F (at 1:00 PM)
Minimum temperature yesterday: 77 °F (at 11:00 PM)
Average temperature yesterday: 86 °F

Past Weeks' High & Low Weather Summary

High97 °F (Sep 24, 1:00 PM)100% (Sep 27, 4:00 AM)30.09 "Hg (Sep 27, 4:00 AM)
Low39 °F (Sep 29, 1:00 AM)36% (Oct 5, 2:00 PM)29.62 "Hg (Sep 24, 4:00 PM)
Average74 °F75%29.87 "Hg
* Reported Sep 24 8:00 AM — Oct 9 9:00 AM, Ciudad del Este, Weather by CustomWeather, © 2015

Note: Actual official high and low records may vary slightly from our data, if they occured in-between our weather recording intervals... More about our weather records


Ciudad del Este weather history for previous 24 hours

Time TempWeatherWind HumidityBarometerVisibility
9:00 AM
Fri, Oct 9
66 °FThunderstorms. Partly sunny.2 mph94%29.83 "Hg5 mi
8:00 AM68 °FThunderstorms. More clouds than sun.6 mph88%N/A5 mi
7:00 AM68 °FThunderstorms. More clouds than sun.15 mph88%N/AN/A
6:00 AM68 °FThunderstorms. Broken clouds.12 mph88%N/AN/A
5:00 AM68 °FLight rain. Partly cloudy.15 mph88%N/AN/A
4:00 AM70 °FPassing clouds.21 mph78%29.74 "HgN/A
3:00 AM72 °FPassing clouds.17 mph78%29.77 "HgN/A
2:00 AM73 °FPassing clouds.14 mph83%29.80 "HgN/A
1:00 AM75 °FPassing clouds.18 mph78%29.80 "HgN/A
12:00 AM77 °FPassing clouds.10 mph79%29.86 "HgN/A
11:00 PM
Thu, Oct 8
77 °FPassing clouds.3 mph79%29.83 "HgN/A
10:00 PM79 °FPassing clouds.3 mph70%29.83 "HgN/A
9:00 PM81 °FPassing clouds.5 mph66%29.80 "HgN/A
8:00 PM82 °FPassing clouds.6 mph66%29.77 "HgN/A
7:00 PM90 °FPassing clouds.13 mph49%29.74 "HgN/A
6:00 PM91 °FPassing clouds.8 mph49%29.68 "HgN/A
5:00 PM93 °FPassing clouds.13 mph44%29.68 "HgN/A
4:00 PM95 °FPassing clouds.21 mph41%29.68 "HgN/A
3:00 PM95 °FScattered clouds.16 mph44%29.68 "HgN/A
2:00 PM95 °FScattered clouds.18 mph47%29.71 "HgN/A
1:00 PM95 °FPartly sunny.14 mph47%29.74 "HgN/A
12:00 PM93 °FScattered clouds.16 mph49%29.77 "HgN/A
11:00 AM91 °FPassing clouds.17 mph52%29.80 "HgN/A
10:00 AM90 °FPassing clouds.12 mph59%29.80 "HgN/A
9:00 AM86 °FSunny.14 mph66%29.80 "Hg10 mi
Weather by CustomWeather, © 2015

See weather overviewHow to use our weather pages